Tracking 28790 objects as of 19-Apr-2024
HD Live streaming from Space Station
objects crossing your sky now

COSMOS 1823 DEB

Track COSMOS 1823 DEB now!
10-day predictions


NORAD ID: 19006
Int'l Code: 1987-020BB
Perigee: 799.6 km
Apogee: 898.6 km
Inclination: 73.4 °
Period: 101.8 minutes
Semi major axis: 7220 km
RCS: 0.0433 m2 (small)
Launch date: February 20, 1987
Source: Commonwealth of Independent States (former USSR) (CIS)
Launch site: PLESETSK MISSILE AND SPACE COMPLEX (PKMTR)

Note: This is SATELLITE DEBRIS
Your satellite tracking list
Your tracking list is empty




NASA's NSSDC Master Catalog

Two Line Element Set (TLE):
1 19006U 87020BB  24109.98359841  .00117475  00000-0  58277-1 0  9991
2 19006  73.4288 315.2532 0068570  88.0332  34.0579 14.15097212736018
Source of the keplerian elements: AFSPC